Westminster, MD

5:09 AM EST on January 19, 2017 (GMT -0500)
Carroll County Regional-Poage

Weather History for KDMW - October, 2013

Change the Weather History Date:

Monday, October 7, 2013

  Actual Average (KTHV) Record (KTHV)
Temperature  
Mean Temperature 63 °F -  
Max Temperature 71 °F 0 °F 86 °F (1997)
Min Temperature 55 °F - 28 °F (2001)
Degree Days  
Heating Degree Days 2    
Growing Degree Days 13 (Base 50)    
Moisture  
Dew Point 59 °F    
Average Humidity 84    
Maximum Humidity 100    
Minimum Humidity 59    
Precipitation  
Precipitation 0.58 in - - ()
Sea Level Pressure  
Sea Level Pressure 29.92 in    
Wind  
Wind Speed 9 mph (SW)    
Max Wind Speed 23 mph    
Max Gust Speed 29 mph    
Visibility 9 miles    
Events Rain    
Averages and records for this station are not official NWS values.
T = Trace of Precipitation, MM = Missing Value Source: NWS Daily Summary

Daily Weather History Graph

Daily Weather History Graph

Search for Another Location

Airport or City:

Trip Planner

Search our weather history database for the weather conditions in past years. The results will help you decide how hot, cold, wet, or windy it might be!

Date:

Astronomy

Oct. 07, 2013 Rise Set
Actual Time 7:10 AM EDT 6:40 PM EDT
Civil Twilight 6:43 AM EDT 7:07 PM EDT
Nautical Twilight 6:12 AM EDT 7:38 PM EDT
Astronomical Twilight 5:40 AM EDT 8:09 PM EDT
Moon 9:57 AM EDT (10/7) 8:24 PM EDT (10/7)
Length of Visible Light 12h 24m
Length of Day
11h 30m
Waxing Crescent, 8% of the Moon is Illuminated
Oct 7
Waxing Crescent
Oct 11
First Quarter
Oct 18
Full
Oct 26
Last Quarter
Nov 3
New

Hourly Weather History & Observations

Time (EDT) Temp. Dew Point Humidity Pressure Visibility Wind Dir Wind Speed Gust Speed Precip Events Conditions
12:00 AM 71.6 °F 66.2 °F 83% 29.96 in 10.0 mi SSE 8.1 mph 17.3 mph N/A   Clear
12:20 AM 71.6 °F 66.2 °F 83% 29.95 in 10.0 mi SSE 9.2 mph 16.1 mph N/A   Scattered Clouds
12:40 AM 71.6 °F 66.2 °F 83% 29.95 in 10.0 mi SSE 12.7 mph - N/A   Overcast
1:00 AM 71.6 °F 66.2 °F 83% 29.94 in 10.0 mi SSE 12.7 mph 18.4 mph N/A   Scattered Clouds
1:20 AM 69.8 °F 66.2 °F 88% 29.94 in 10.0 mi South 8.1 mph 18.4 mph N/A   Clear
1:40 AM 69.8 °F 66.2 °F 88% 29.94 in 10.0 mi South 12.7 mph 18.4 mph N/A   Scattered Clouds
2:00 AM 69.8 °F 66.2 °F 88% 29.93 in 10.0 mi SSE 10.4 mph - N/A   Mostly Cloudy
2:20 AM 69.8 °F 66.2 °F 88% 29.93 in 10.0 mi South 13.8 mph - N/A   Scattered Clouds
2:40 AM 69.8 °F 66.2 °F 88% 29.92 in 10.0 mi SSE 8.1 mph 16.1 mph N/A   Scattered Clouds
3:00 AM 69.8 °F 66.2 °F 88% 29.91 in 10.0 mi SSE 11.5 mph 17.3 mph N/A   Scattered Clouds
3:20 AM 69.8 °F 64.4 °F 83% 29.90 in 10.0 mi SSE 9.2 mph - N/A   Scattered Clouds
3:40 AM 69.8 °F 66.2 °F 88% 29.89 in 10.0 mi SSE 9.2 mph - N/A   Mostly Cloudy
4:00 AM 69.8 °F 66.2 °F 88% 29.89 in 10.0 mi SSE 10.4 mph - N/A   Mostly Cloudy
4:20 AM 69.8 °F 66.2 °F 88% 29.89 in 10.0 mi South 12.7 mph 18.4 mph N/A   Overcast
4:40 AM 69.8 °F 68.0 °F 94% 29.89 in 10.0 mi South 10.4 mph 17.3 mph N/A   Overcast
5:00 AM 69.8 °F 68.0 °F 94% 29.89 in 10.0 mi South 12.7 mph 16.1 mph N/A   Overcast
5:20 AM 69.8 °F 68.0 °F 94% 29.89 in 10.0 mi South 13.8 mph 18.4 mph N/A   Overcast
5:40 AM 69.8 °F 68.0 °F 94% 29.88 in 10.0 mi SSE 10.4 mph - N/A   Overcast
6:00 AM 69.8 °F 68.0 °F 94% 29.87 in 10.0 mi SSE 10.4 mph - N/A   Overcast
6:20 AM 69.8 °F 68.0 °F 94% 29.87 in 10.0 mi South 11.5 mph 16.1 mph N/A   Overcast
6:40 AM 69.8 °F 68.0 °F 94% 29.86 in 10.0 mi South 10.4 mph - N/A   Overcast
7:00 AM 69.8 °F 68.0 °F 94% 29.85 in 10.0 mi SSE 9.2 mph 16.1 mph N/A   Overcast
7:20 AM 69.8 °F 68.0 °F 94% 29.85 in 10.0 mi South 11.5 mph - N/A   Overcast
10:05 AM 71.6 °F 68.0 °F 88% 29.80 in 4.0 mi South 17.3 mph 28.8 mph N/A Rain Rain
10:25 AM 69.8 °F 66.2 °F 88% 29.82 in 0.8 mi SSW 23.0 mph 28.8 mph 0.08 in Rain Heavy Rain
10:45 AM 66.2 °F 64.4 °F 94% 29.82 in 1.8 mi SSW 15.0 mph 18.4 mph 0.14 in Rain Heavy Rain
11:05 AM 66.2 °F 64.4 °F 94% 29.82 in 1.2 mi SSW 15.0 mph 18.4 mph 0.11 in Rain Heavy Rain
11:25 AM 66.2 °F 66.2 °F 100% 29.82 in 1.8 mi SSW 11.5 mph 17.3 mph 0.17 in Rain Heavy Rain
11:45 AM 66.2 °F 64.4 °F 94% 29.80 in 1.5 mi SW 11.5 mph 16.1 mph 0.29 in Rain Heavy Rain
12:05 PM 66.2 °F 64.4 °F 94% 29.81 in 7.0 mi SW 9.2 mph - 0.02 in Rain Rain
12:25 PM 66.2 °F 64.4 °F 94% 29.83 in 5.0 mi SSW 12.7 mph - 0.03 in Rain Heavy Rain
12:45 PM 62.6 °F 60.8 °F 94% 29.86 in 7.0 mi West 12.7 mph 17.3 mph 0.05 in Rain Rain
1:05 PM 60.8 °F 60.8 °F 100% 29.84 in 10.0 mi West 9.2 mph - 0.02 in Rain Rain
1:25 PM 60.8 °F 59.0 °F 94% 29.84 in 7.0 mi WNW 8.1 mph - 0.06 in Rain Heavy Rain
1:45 PM 59.0 °F 57.2 °F 94% 29.85 in 10.0 mi Calm Calm - 0.08 in Rain Rain
2:05 PM 57.2 °F 55.4 °F 94% 29.89 in 10.0 mi WSW 9.2 mph - 0.01 in Rain Light Rain
2:25 PM 57.2 °F 55.4 °F 94% 29.89 in 4.0 mi West 6.9 mph - 0.02 in   Heavy Drizzle
2:45 PM 57.2 °F 57.2 °F 100% 29.89 in 10.0 mi West 5.8 mph - 0.02 in   Light Drizzle
3:05 PM 59.0 °F 57.2 °F 94% 29.90 in 10.0 mi West 4.6 mph - N/A   Overcast
3:25 PM 59.0 °F 55.4 °F 88% 29.90 in 10.0 mi WSW 4.6 mph - N/A   Overcast
3:45 PM 59.0 °F 55.4 °F 88% 29.90 in 10.0 mi West 3.5 mph - N/A   Overcast
4:05 PM 60.8 °F 55.4 °F 82% 29.90 in 10.0 mi Calm Calm - N/A   Overcast
4:25 PM 60.8 °F 57.2 °F 88% 29.91 in 10.0 mi West 3.5 mph - N/A   Mostly Cloudy
4:45 PM 62.6 °F 57.2 °F 82% 29.91 in 10.0 mi Calm Calm - N/A   Clear
5:05 PM 62.6 °F 57.2 °F 82% 29.92 in 10.0 mi Calm Calm - N/A   Clear
5:25 PM 62.6 °F 57.2 °F 82% 29.93 in 10.0 mi West 3.5 mph - N/A   Scattered Clouds
5:45 PM 62.6 °F 55.4 °F 77% 29.94 in 10.0 mi West 8.1 mph - N/A   Clear
6:05 PM 62.6 °F 55.4 °F 77% 29.95 in 10.0 mi NW 6.9 mph - N/A   Clear
6:25 PM 60.8 °F 53.6 °F 77% 29.96 in 10.0 mi WNW 6.9 mph 16.1 mph N/A   Clear
6:45 PM 60.8 °F 50.0 °F 68% 29.97 in 10.0 mi WNW 6.9 mph - N/A   Clear
7:05 PM 60.8 °F 48.2 °F 63% 29.98 in 10.0 mi NW 8.1 mph - N/A   Clear
7:25 PM 60.8 °F 48.2 °F 63% 29.98 in 10.0 mi West 8.1 mph - N/A   Clear
7:45 PM 59.0 °F 48.2 °F 67% 30.00 in 10.0 mi West 8.1 mph - N/A   Clear
8:05 PM 60.8 °F 46.4 °F 59% 30.01 in 10.0 mi West 8.1 mph - N/A   Clear
8:25 PM 57.2 °F 46.4 °F 67% 30.02 in 10.0 mi WNW 5.8 mph - N/A   Clear
8:45 PM 57.2 °F 46.4 °F 67% 30.03 in 10.0 mi WNW 5.8 mph - N/A   Clear
9:05 PM 57.2 °F 46.4 °F 67% 30.04 in 10.0 mi Calm Calm - N/A   Clear
9:25 PM 57.2 °F 46.4 °F 67% 30.04 in 10.0 mi NW 4.6 mph - N/A   Clear
9:45 PM 55.4 °F 46.4 °F 72% 30.04 in 10.0 mi WNW 4.6 mph - N/A   Clear
10:05 PM 57.2 °F 46.4 °F 67% 30.05 in 10.0 mi NW 6.9 mph - N/A   Clear
10:25 PM 55.4 °F 44.6 °F 67% 30.06 in 10.0 mi NW 5.8 mph - N/A   Clear
10:45 PM 55.4 °F 44.6 °F 67% 30.06 in 10.0 mi NW 5.8 mph - N/A   Clear
11:05 PM 55.4 °F 44.6 °F 67% 30.07 in 10.0 mi NW 6.9 mph - N/A   Clear
11:25 PM 55.4 °F 44.6 °F 67% 30.07 in 10.0 mi NW 4.6 mph - N/A   Clear
11:45 PM 55.4 °F 42.8 °F 63% 30.07 in 10.0 mi WNW 3.5 mph - N/A   Clear